New Paris, IN

5:07 PM EDT on September 28, 2016 (GMT -0400)
Goshen Municipal

Weather History for KGSH - December, 2012

Change the Weather History Date:

Wednesday, December 19, 2012

  Actual Average Record
Temperature  
Mean Temperature 40 °F -  
Max Temperature 43 °F 34 °F 56 °F (1957)
Min Temperature 36 °F 22 °F -8 °F (1963)
Degree Days  
Heating Degree Days 26    
Moisture  
Dew Point 34 °F    
Average Humidity 79    
Maximum Humidity 93    
Minimum Humidity 68    
Precipitation  
Precipitation 0.00 in - - ()
Sea Level Pressure  
Sea Level Pressure 29.97 in    
Wind  
Wind Speed 5 mph (NW)    
Max Wind Speed 15 mph    
Max Gust Speed -    
Visibility 6 miles    
Events      
Averages and records for this station are not official NWS values.
T = Trace of Precipitation, MM = Missing Value Source: NWS Daily Summary

Daily Weather History Graph

Daily Weather History Graph

Search for Another Location

Airport or City:

Trip Planner

Search our weather history database for the weather conditions in past years. The results will help you decide how hot, cold, wet, or windy it might be!

Date:

Astronomy

Dec. 19, 2012 Rise Set
Actual Time 8:05 AM EST 5:15 PM EST
Civil Twilight 7:33 AM EST 5:47 PM EST
Nautical Twilight 6:59 AM EST 6:22 PM EST
Astronomical Twilight 6:25 AM EST 6:55 PM EST
Moon 12:09 PM EST (12/19) No Moon Set
Length of Visible Light 10h 13m
Length of Day
9h 10m
Waxing Crescent, 45% of the Moon is Illuminated
Dec 19
Waxing Crescent
Dec 20
First Quarter
Dec 28
Full
Jan 4
Last Quarter
Jan 11
New

Hourly Weather History & Observations

Time (EST) Temp. Windchill Dew Point Humidity Pressure Visibility Wind Dir Wind Speed Gust Speed Precip Events Conditions
12:08 AM 37.4 °F - 35.6 °F 93% 29.70 in 6.0 mi Calm Calm - N/A   Overcast
12:53 AM 37.9 °F - 35.1 °F 89% 29.75 in 5.0 mi Calm Calm - N/A   Overcast
1:53 AM 39.0 °F 33.4 °F 35.1 °F 86% 29.78 in 5.0 mi West 8.1 mph - N/A   Overcast
2:53 AM 39.9 °F 33.4 °F 36.0 °F 86% 29.83 in 5.0 mi West 10.4 mph - N/A   Overcast
3:28 AM 39.2 °F 32.0 °F 35.6 °F 87% 29.83 in 4.0 mi West 11.5 mph - N/A   Overcast
3:53 AM 39.9 °F 33.9 °F 37.0 °F 89% 29.85 in 4.0 mi West 9.2 mph - 0.00 in   Overcast
4:53 AM 39.0 °F 34.0 °F 35.1 °F 86% 29.87 in 5.0 mi NNW 6.9 mph - N/A   Mostly Cloudy
5:00 AM 39.2 °F 34.2 °F 35.6 °F 87% 29.85 in 5.0 mi NNW 6.9 mph - N/A   Scattered Clouds
5:30 AM 39.2 °F 33.6 °F 35.6 °F 87% 29.88 in 5.0 mi NNW 8.1 mph - N/A   Mostly Cloudy
5:53 AM 39.0 °F 31.8 °F 34.0 °F 82% 29.92 in 7.0 mi North 11.5 mph - N/A   Overcast
6:23 AM 37.4 °F 30.8 °F 33.8 °F 87% 29.92 in 6.0 mi NNW 9.2 mph - N/A   Overcast
6:53 AM 37.0 °F 31.0 °F 32.0 °F 82% 29.96 in 7.0 mi North 8.1 mph - N/A   Mostly Cloudy
7:53 AM 37.0 °F 34.5 °F 32.0 °F 82% 29.99 in 6.0 mi NNE 3.5 mph - N/A   Haze
8:53 AM 36.0 °F 31.1 °F 32.0 °F 86% 30.02 in 4.0 mi SW 5.8 mph - N/A   Mostly Cloudy
9:53 AM 37.9 °F - 34.0 °F 86% 30.02 in 4.0 mi Calm Calm - N/A   Clear
10:53 AM 39.9 °F 37.8 °F 33.1 °F 77% 30.05 in 5.0 mi South 3.5 mph - N/A   Haze
11:53 AM 42.1 °F - 33.1 °F 70% 30.06 in 6.0 mi Calm Calm - N/A   Haze
12:24 PM 42.8 °F - 33.8 °F 70% 30.04 in 7.0 mi Calm Calm - N/A   Mostly Cloudy
12:53 PM 43.0 °F - 33.1 °F 68% 30.04 in 7.0 mi Calm Calm - N/A   Overcast
1:53 PM 42.1 °F 40.2 °F 33.1 °F 70% 30.05 in 7.0 mi SSW 3.5 mph - N/A   Overcast
2:53 PM 43.0 °F 41.3 °F 33.1 °F 68% 30.07 in 6.0 mi WSW 3.5 mph - N/A   Haze
3:03 PM 42.8 °F 41.1 °F 33.8 °F 70% 30.05 in 6.0 mi South 3.5 mph - N/A   Haze
3:10 PM 42.8 °F 41.1 °F 33.8 °F 70% 30.04 in 6.0 mi SW 3.5 mph - N/A   Haze
3:53 PM 43.0 °F - 34.0 °F 71% 30.06 in 6.0 mi Calm Calm - N/A   Haze
4:26 PM 42.8 °F 39.3 °F 33.8 °F 70% 30.03 in 7.0 mi East 5.8 mph - N/A   Overcast
4:53 PM 42.1 °F 40.2 °F 33.1 °F 70% 30.06 in 7.0 mi ESE 3.5 mph - N/A   Partly Cloudy
5:53 PM 41.0 °F - 33.1 °F 73% 30.08 in 8.0 mi Calm Calm - N/A   Partly Cloudy
6:53 PM 37.9 °F 34.4 °F 33.1 °F 83% 30.08 in 6.0 mi East 4.6 mph - N/A   Haze
7:53 PM 39.0 °F 34.8 °F 34.0 °F 82% 30.06 in 5.0 mi East 5.8 mph - N/A   Haze
8:53 PM 39.9 °F 35.1 °F 34.0 °F 79% 30.06 in 7.0 mi ESE 6.9 mph - N/A   Overcast
9:53 PM 39.9 °F 33.4 °F 34.0 °F 79% 30.02 in 6.0 mi East 10.4 mph - N/A   Haze
10:53 PM 39.9 °F 31.8 °F 34.0 °F 79% 29.99 in 6.0 mi East 15.0 mph - N/A   Haze
11:53 PM 39.9 °F 33.4 °F 34.0 °F 79% 29.97 in 6.0 mi East 10.4 mph - N/A   Haze